Marshfield, WI

6:21 PM CST on January 20, 2017 (GMT -0600)
Marshfield Municipal

Weather History for KMFI - November, 2014

Change the Weather History Date:

Tuesday, November 18, 2014

  Actual Average Record
Temperature  
Mean Temperature 10 °F -  
Max Temperature 14 °F 42 °F 68 °F (1953)
Min Temperature 8 °F 24 °F 1 °F (1929)
Degree Days  
Heating Degree Days 55    
Moisture  
Dew Point 3 °F    
Average Humidity 71    
Maximum Humidity 80    
Minimum Humidity 61    
Precipitation  
Precipitation 0.00 in - - ()
Sea Level Pressure  
Sea Level Pressure 29.95 in    
Wind  
Wind Speed 13 mph (West)    
Max Wind Speed 20 mph    
Max Gust Speed 26 mph    
Visibility 10 miles    
Events Snow    
Averages and records for this station are not official NWS values.
T = Trace of Precipitation, MM = Missing Value Source: NWS Daily Summary

Daily Weather History Graph

Daily Weather History Graph

Search for Another Location

Airport or City:

Trip Planner

Search our weather history database for the weather conditions in past years. The results will help you decide how hot, cold, wet, or windy it might be!

Date:

Astronomy

Nov. 18, 2014 Rise Set
Actual Time 7:01 AM CST 4:30 PM CST
Civil Twilight 6:29 AM CST 5:01 PM CST
Nautical Twilight 5:54 AM CST 5:37 PM CST
Astronomical Twilight 5:19 AM CST 6:11 PM CST
Moon 2:50 AM CST (11/18) 2:33 PM CST (11/18)
Length of Visible Light 10h 32m
Length of Day
9h 28m
Waning Crescent, 15% of the Moon is Illuminated
Nov 18
Waning Crescent
Nov 22
New
Nov 29
First Quarter
Dec 6
Full
Dec 14
Last Quarter

Hourly Weather History & Observations

Time (CST) Temp. Windchill Dew Point Humidity Pressure Visibility Wind Dir Wind Speed Gust Speed Precip Events Conditions
12:54 AM 10.0 °F -6.5 °F 1.0 °F 67% 29.88 in 10.0 mi WNW 15.0 mph 25.3 mph N/A   Mostly Cloudy
1:54 AM 10.0 °F -7.1 °F 1.9 °F 70% 29.89 in 10.0 mi WNW 16.1 mph - N/A   Overcast
2:54 AM 10.0 °F -8.6 °F 1.9 °F 70% 29.90 in 10.0 mi WNW 19.6 mph 26.5 mph N/A   Overcast
3:54 AM 10.0 °F -5.9 °F 3.0 °F 73% 29.91 in 7.0 mi WNW 13.8 mph 24.2 mph N/A   Overcast
4:54 AM 9.0 °F -6.6 °F 3.0 °F 77% 29.93 in 9.0 mi WNW 12.7 mph - N/A   Overcast
5:54 AM 10.0 °F -5.2 °F 3.9 °F 76% 29.94 in 9.0 mi WNW 12.7 mph - N/A   Overcast
6:27 AM 10.0 °F -5.2 °F 3.0 °F 73% 29.87 in 10.0 mi WNW 12.7 mph - N/A   Overcast
6:54 AM 9.0 °F -5.1 °F 3.0 °F 77% 29.97 in 10.0 mi West 10.4 mph - N/A   Overcast
7:05 AM 9.0 °F -6.6 °F 3.9 °F 80% 29.88 in 9.0 mi West 12.7 mph - N/A   Overcast
7:54 AM 9.0 °F -5.1 °F 3.9 °F 80% 29.98 in 5.0 mi West 10.4 mph - 0.00 in Snow Light Snow
8:54 AM 10.0 °F -7.6 °F 3.9 °F 76% 29.99 in 10.0 mi WNW 17.3 mph - 0.00 in   Overcast
9:54 AM 10.0 °F -6.5 °F 3.0 °F 73% 30.01 in 10.0 mi West 15.0 mph - N/A   Overcast
10:54 AM 10.0 °F -7.1 °F 1.9 °F 70% 30.01 in 10.0 mi West 16.1 mph 21.9 mph N/A   Overcast
11:54 AM 10.0 °F -5.2 °F 1.0 °F 67% 30.01 in 10.0 mi West 12.7 mph - 0.00 in   Overcast
12:54 PM 10.9 °F -5.4 °F 1.0 °F 64% 29.99 in 10.0 mi West 15.0 mph 21.9 mph N/A   Overcast
1:54 PM 12.0 °F -5.1 °F 1.9 °F 64% 30.00 in 10.0 mi West 17.3 mph - 0.00 in   Overcast
2:43 PM 12.0 °F -2.7 °F 1.0 °F 61% 29.91 in 10.0 mi West 12.7 mph - N/A   Overcast
2:54 PM 12.0 °F -2.0 °F 1.9 °F 64% 30.00 in 10.0 mi West 11.5 mph - N/A   Overcast
3:54 PM 12.0 °F -1.3 °F 1.0 °F 61% 30.00 in 10.0 mi West 10.4 mph - N/A   Overcast
4:54 PM 12.0 °F 0.5 °F 1.9 °F 64% 30.01 in 10.0 mi West 8.1 mph - N/A   Overcast
5:54 PM 9.0 °F -3.2 °F 1.0 °F 70% 30.01 in 10.0 mi WSW 8.1 mph - N/A   Clear
6:54 PM 8.1 °F -3.2 °F 1.9 °F 76% 30.00 in 10.0 mi SW 6.9 mph - N/A   Overcast
7:54 PM 10.0 °F -1.9 °F 3.0 °F 73% 29.99 in 10.0 mi SSW 8.1 mph - N/A   Overcast
8:42 PM 10.0 °F -0.9 °F 3.0 °F 73% 29.90 in 10.0 mi SSW 6.9 mph - N/A   Overcast
8:54 PM 10.9 °F 0.2 °F 3.9 °F 73% 29.98 in 10.0 mi SSW 6.9 mph - N/A   Overcast
9:28 PM 10.9 °F -0.8 °F 3.9 °F 73% 29.89 in 10.0 mi SSW 8.1 mph - N/A   Overcast
9:54 PM 12.0 °F -0.4 °F 3.9 °F 70% 29.96 in 10.0 mi SSW 9.2 mph - N/A   Overcast
10:16 PM 12.0 °F 1.5 °F 3.9 °F 70% 29.88 in 10.0 mi SSW 6.9 mph - N/A   Overcast
10:54 PM 12.9 °F 0.7 °F 5.0 °F 71% 29.94 in 10.0 mi SSW 9.2 mph - N/A   Overcast
11:54 PM 14.0 °F 2.9 °F 6.1 °F 71% 29.92 in 10.0 mi South 8.1 mph - N/A   Overcast